N68AL KARR-KRHI

Flight info

Callsign N68AL
Flight time 0h 42m
Altitude 43000
Route HINCK SIMMN MEETS JVL DLL/N0456F410
Aircraft GLF4/M-SFGHIRWXY/S

Departure

Time 2026-04-27 16:05
Airport Aurora Municipal Airport (KARR)

Arrival

Time 2026-04-27 16:47
Airport Rhinelander Oneida County Airport (KRHI)
Time Latitude Longitude Altitude Speed Heading
2026-04-27 16:00 41.76769 -88.46917 716 ft 0 kts 178°
2026-04-27 16:02 41.76750 -88.46918 716 ft 5 kts 192°
2026-04-27 16:02 41.76763 -88.46970 716 ft 12 kts 354°
2026-04-27 16:02 41.76852 -88.46981 716 ft 19 kts 353°
2026-04-27 16:03 41.76922 -88.47105 716 ft 22 kts 268°
2026-04-27 16:03 41.76918 -88.47346 716 ft 29 kts 268°
2026-04-27 16:03 41.76915 -88.47624 716 ft 29 kts 268°
2026-04-27 16:03 41.76913 -88.47893 716 ft 29 kts 269°
2026-04-27 16:04 41.76909 -88.48201 716 ft 35 kts 269°
2026-04-27 16:04 41.76906 -88.48481 716 ft 15 kts 275°
2026-04-27 16:04 41.76979 -88.48527 716 ft 12 kts 360°
2026-04-27 16:04 41.77018 -88.48456 716 ft 11 kts 88°
2026-04-27 16:05 41.77023 -88.47862 716 ft 120 kts 89°
2026-04-27 16:05 41.77082 -88.46523 1382 ft 155 kts 88°
2026-04-27 16:05 41.77680 -88.45293 2393 ft 201 kts 39°
2026-04-27 16:05 41.79298 -88.44944 2855 ft 276 kts 346°
2026-04-27 16:06 41.81147 -88.46281 3426 ft 327 kts 309°
2026-04-27 16:06 41.82320 -88.48653 5568 ft 311 kts 294°
2026-04-27 16:06 41.83306 -88.50769 8502 ft 271 kts 291°
2026-04-27 16:06 41.84139 -88.52886 10282 ft 270 kts 289°
2026-04-27 16:07 41.85041 -88.55189 11485 ft 294 kts 292°
2026-04-27 16:07 41.86003 -88.57555 13039 ft 300 kts 291°
2026-04-27 16:07 41.86959 -88.59930 14868 ft 296 kts 291°
2026-04-27 16:07 41.87905 -88.62306 16444 ft 299 kts 291°
2026-04-27 16:08 41.88896 -88.64795 17753 ft 311 kts 291°
2026-04-27 16:08 41.89919 -88.67343 19227 ft 317 kts 291°
2026-04-27 16:08 41.90950 -88.69923 20689 ft 322 kts 291°
2026-04-27 16:08 41.91994 -88.72558 21994 ft 330 kts 291°
2026-04-27 16:09 41.93086 -88.75286 23297 ft 339 kts 291°
2026-04-27 16:09 41.95357 -88.81020 25581 ft 365 kts 291°
2026-04-27 16:09 41.96565 -88.84047 26835 ft 374 kts 291°
2026-04-27 16:10 41.99219 -88.90102 29629 ft 390 kts 300°
2026-04-27 16:10 42.02439 -88.96079 32007 ft 408 kts 298°
2026-04-27 16:11 42.04101 -88.99180 33386 ft 411 kts 298°
2026-04-27 16:11 42.07441 -89.05512 34852 ft 439 kts 297°
2026-04-27 16:12 42.12942 -89.15816 34810 ft 447 kts 302°
2026-04-27 16:12 42.18404 -89.20309 34831 ft 489 kts 342°
2026-04-27 16:13 42.21817 -89.20582 34841 ft 505 kts
2026-04-27 16:13 42.32148 -89.16954 34815 ft 508 kts
2026-04-27 16:14 42.46104 -89.13164 34812 ft 509 kts
2026-04-27 16:15 42.59585 -89.12965 34828 ft 450 kts 327°
2026-04-27 16:16 42.65015 -89.16523 34799 ft 430 kts 327°
2026-04-27 16:16 42.70531 -89.20145 34799 ft 441 kts 327°
2026-04-27 16:17 42.81663 -89.27441 34793 ft 443 kts 327°
2026-04-27 16:18 42.92806 -89.34779 34796 ft 445 kts 327°
2026-04-27 16:19 42.98360 -89.38451 34800 ft 443 kts 327°
2026-04-27 16:20 43.06732 -89.44002 34804 ft 460 kts 327°
2026-04-27 16:20 43.09707 -89.45991 34811 ft 484 kts 327°
2026-04-27 16:21 43.18863 -89.52063 34780 ft 480 kts 327°
2026-04-27 16:22 43.30906 -89.60097 34747 ft 483 kts 327°
2026-04-27 16:22 43.40092 -89.66257 34742 ft 487 kts 326°
2026-04-27 16:23 43.49256 -89.72421 34756 ft 487 kts 326°
2026-04-27 16:24 43.55559 -89.76051 34767 ft 504 kts 344°
2026-04-27 16:24 43.62709 -89.75854 34636 ft 508 kts 359°
2026-04-27 16:25 43.69662 -89.75384 33449 ft 488 kts 358°
2026-04-27 16:25 43.76289 -89.74934 32379 ft 466 kts 358°
2026-04-27 16:26 43.82648 -89.74501 31410 ft 446 kts 359°
2026-04-27 16:26 43.88722 -89.74084 30518 ft 426 kts 358°
2026-04-27 16:27 43.94559 -89.73684 29639 ft 408 kts 359°
2026-04-27 16:27 44.02858 -89.73119 28424 ft 385 kts 359°
2026-04-27 16:28 44.08091 -89.72766 27671 ft 371 kts 359°
2026-04-27 16:28 44.13218 -89.72416 26893 ft 358 kts 359°
2026-04-27 16:29 44.20486 -89.71911 25818 ft 337 kts 359°
2026-04-27 16:30 44.25119 -89.71597 25152 ft 324 kts 359°
2026-04-27 16:30 44.29556 -89.71292 24504 ft 311 kts
2026-04-27 16:31 44.35899 -89.70847 23581 ft 303 kts
2026-04-27 16:31 44.40330 -89.70551 23001 ft 330 kts
2026-04-27 16:32 44.45185 -89.70217 22377 ft 365 kts
2026-04-27 16:32 44.47789 -89.70036 22008 ft 382 kts
2026-04-27 16:33 44.53333 -89.69647 21222 ft 414 kts
2026-04-27 16:33 44.56283 -89.69441 20794 ft 428 kts
2026-04-27 16:33 44.59352 -89.69230 20349 ft 442 kts
2026-04-27 16:33 44.62449 -89.69012 20041 ft 444 kts
2026-04-27 16:34 44.65528 -89.68793 19940 ft 435 kts
2026-04-27 16:34 44.68552 -89.68581 19919 ft 425 kts
2026-04-27 16:34 44.71466 -89.68507 19853 ft 416 kts 356°
2026-04-27 16:34 44.74326 -89.68717 19833 ft 406 kts 354°
2026-04-27 16:35 44.77172 -89.68985 19642 ft 403 kts 354°
2026-04-27 16:35 44.79994 -89.69260 19211 ft 407 kts 354°
2026-04-27 16:35 44.85675 -89.69826 18783 ft 402 kts 354°
2026-04-27 16:36 44.88467 -89.70109 18549 ft 401 kts 354°
2026-04-27 16:36 44.91232 -89.70392 18233 ft 402 kts 354°
2026-04-27 16:36 44.94027 -89.70671 18009 ft 401 kts 354°
2026-04-27 16:36 44.96847 -89.70962 17755 ft 401 kts 354°
2026-04-27 16:37 44.99599 -89.71241 17622 ft 397 kts 354°
2026-04-27 16:37 45.02360 -89.71520 17410 ft 396 kts 354°
2026-04-27 16:37 45.05125 -89.71804 17213 ft 395 kts 354°
2026-04-27 16:37 45.07868 -89.72086 16991 ft 394 kts 354°
2026-04-27 16:38 45.10624 -89.72362 16773 ft 394 kts 354°
2026-04-27 16:38 45.13374 -89.72644 16604 ft 391 kts 355°
2026-04-27 16:38 45.16101 -89.72926 16421 ft 389 kts 354°
2026-04-27 16:38 45.18811 -89.73205 16370 ft 383 kts 355°
2026-04-27 16:39 45.21431 -89.73468 16338 ft 378 kts 354°
2026-04-27 16:39 45.24047 -89.73735 16314 ft 370 kts 355°
2026-04-27 16:39 45.26608 -89.73998 16242 ft 361 kts 355°
2026-04-27 16:39 45.29099 -89.74255 16079 ft 356 kts 355°
2026-04-27 16:40 45.31592 -89.74514 15566 ft 362 kts 355°
2026-04-27 16:40 45.34109 -89.74776 14997 ft 363 kts 355°
2026-04-27 16:40 45.36610 -89.75028 14393 ft 362 kts 355°
2026-04-27 16:40 45.39127 -89.75291 13771 ft 361 kts 355°
2026-04-27 16:41 45.41640 -89.75545 13147 ft 360 kts 355°
2026-04-27 16:41 45.44134 -89.75807 12535 ft 359 kts 355°
2026-04-27 16:41 45.46637 -89.76067 11705 ft 358 kts 355°
2026-04-27 16:41 45.49099 -89.76318 10713 ft 353 kts 355°
2026-04-27 16:42 45.51505 -89.76569 9728 ft 348 kts 355°
2026-04-27 16:42 45.53912 -89.76567 8744 ft 343 kts
2026-04-27 16:42 45.56261 -89.76435 7743 ft 340 kts 352°
2026-04-27 16:42 45.58596 -89.76891 6750 ft 336 kts 359°
2026-04-27 16:43 45.60770 -89.76363 5580 ft 305 kts 33°
2026-04-27 16:43 45.62306 -89.74519 4946 ft 291 kts 62°
2026-04-27 16:43 45.62958 -89.71880 4044 ft 281 kts 95°
2026-04-27 16:43 45.62671 -89.69333 3905 ft 244 kts 107°
2026-04-27 16:44 45.62601 -89.66996 4016 ft 227 kts 92°
2026-04-27 16:44 45.62730 -89.64903 4085 ft 215 kts 96°
2026-04-27 16:44 45.62723 -89.62805 3907 ft 203 kts 97°
2026-04-27 16:44 45.62778 -89.60872 3913 ft 186 kts 98°
2026-04-27 16:45 45.62815 -89.59342 4030 ft 157 kts 97°
2026-04-27 16:45 45.62852 -89.57832 3901 ft 143 kts 98°
2026-04-27 16:45 45.62885 -89.56568 3907 ft 113 kts 100°
2026-04-27 16:45 45.62899 -89.55366 3539 ft 120 kts 102°
2026-04-27 16:46 45.62906 -89.54209 3271 ft 119 kts 97°
2026-04-27 16:46 45.62946 -89.52992 2914 ft 127 kts 97°
2026-04-27 16:46 45.62954 -89.51704 2380 ft 132 kts 96°
2026-04-27 16:46 45.62980 -89.50453 1982 ft 126 kts 91°
2026-04-27 16:47 45.63014 -89.49238 1726 ft 121 kts 89°
2026-04-27 16:47 45.63048 -89.48074 1622 ft 107 kts 88°
2026-04-27 16:47 45.63063 -89.47161 1609 ft 73 kts 88°
2026-04-27 16:47 45.63074 -89.46597 1605 ft 42 kts 88°
2026-04-27 16:48 45.63083 -89.46236 1604 ft 31 kts 88°
2026-04-27 16:48 45.63060 -89.46029 1605 ft 16 kts 154°
2026-04-27 16:48 45.62959 -89.46018 1605 ft 13 kts 179°
2026-04-27 16:49 45.62814 -89.46119 1605 ft 10 kts 229°
2026-04-27 16:49 45.62772 -89.46196 1605 ft 9 kts 232°
2026-04-27 16:49 45.62742 -89.46252 1605 ft 0 kts 232°